TimeEDT,TemperatureF,Dew PointF,Humidity,Sea Level PressureIn,VisibilityMPH,Wind Direction,Wind SpeedMPH,Gust SpeedMPH,PrecipitationIn,Events,Conditions,WindDirDegrees,DateUTC
12:53 AM,62.1,57.9,86,29.99,5.0,South,6.9,-,N/A,,Clear,190,2013-10-01 04:53:00
1:53 AM,62.1,57.9,86,30.00,5.0,SSW,5.8,-,N/A,,Clear,200,2013-10-01 05:53:00
2:53 AM,62.1,57.9,86,30.00,4.0,South,6.9,-,N/A,,Clear,190,2013-10-01 06:53:00
3:53 AM,61.0,57.9,90,30.00,4.0,SSW,5.8,-,N/A,,Clear,210,2013-10-01 07:53:00
4:53 AM,61.0,57.9,90,30.00,4.0,SSW,4.6,-,N/A,,Clear,210,2013-10-01 08:53:00
5:53 AM,60.1,57.0,90,30.02,4.0,SW,3.5,-,N/A,,Clear,220,2013-10-01 09:53:00
6:53 AM,59.0,55.9,90,30.04,3.0,South,4.6,-,N/A,,Clear,190,2013-10-01 10:53:00
7:16 AM,59.0,55.4,88,30.05,2.5,South,4.6,-,N/A,,Clear,180,2013-10-01 11:16:00
7:36 AM,59.0,55.4,88,30.05,1.5,South,3.5,-,N/A,,Clear,180,2013-10-01 11:36:00
7:53 AM,59.0,55.9,90,30.04,1.8,South,5.8,-,N/A,,Clear,180,2013-10-01 11:53:00
8:12 AM,60.8,57.2,88,30.06,2.0,South,8.1,-,N/A,,Partly Cloudy,180,2013-10-01 12:12:00
8:53 AM,63.0,59.0,87,30.05,2.5,South,6.9,-,N/A,,Partly Cloudy,190,2013-10-01 12:53:00
9:11 AM,64.4,60.8,88,30.06,3.0,South,6.9,-,N/A,,Mostly Cloudy,190,2013-10-01 13:11:00
9:53 AM,66.9,62.1,84,30.06,4.0,SSW,6.9,-,N/A,,Haze,210,2013-10-01 13:53:00
10:53 AM,71.1,61.0,70,30.06,10.0,SSW,10.4,-,N/A,,Mostly Cloudy,210,2013-10-01 14:53:00
11:11 AM,71.6,60.8,69,30.07,10.0,SW,11.5,-,N/A,,Overcast,230,2013-10-01 15:11:00
11:22 AM,71.6,60.8,69,30.07,10.0,SW,11.5,-,N/A,,Mostly Cloudy,230,2013-10-01 15:22:00
11:53 AM,72.0,60.1,66,30.05,10.0,SW,15.0,-,N/A,,Scattered Clouds,220,2013-10-01 15:53:00
12:53 PM,73.0,60.1,64,30.04,9.0,WSW,12.7,-,0.01,,Overcast,250,2013-10-01 16:53:00
1:53 PM,75.9,61.0,60,30.03,10.0,WSW,15.0,18.4,N/A,,Mostly Cloudy,240,2013-10-01 17:53:00
2:53 PM,75.0,60.1,60,30.02,10.0,SW,16.1,21.9,N/A,,Mostly Cloudy,230,2013-10-01 18:53:00
3:53 PM,75.0,59.0,57,30.01,10.0,SW,10.4,-,N/A,,Mostly Cloudy,230,2013-10-01 19:53:00
4:53 PM,75.9,60.1,58,30.00,10.0,West,13.8,18.4,N/A,,Scattered Clouds,260,2013-10-01 20:53:00
5:53 PM,75.9,59.0,56,29.99,10.0,WSW,11.5,-,N/A,,Partly Cloudy,240,2013-10-01 21:53:00
6:53 PM,73.0,59.0,61,29.99,10.0,WSW,8.1,-,N/A,,Clear,240,2013-10-01 22:53:00
7:53 PM,70.0,59.0,68,30.00,10.0,SSW,4.6,-,N/A,,Clear,210,2013-10-01 23:53:00
8:53 PM,66.9,57.9,73,30.01,10.0,SW,3.5,-,N/A,,Clear,230,2013-10-02 00:53:00
9:53 PM,66.9,57.9,73,30.02,10.0,SSW,6.9,-,N/A,,Clear,210,2013-10-02 01:53:00
10:53 PM,66.0,57.9,75,30.02,9.0,SSW,6.9,-,N/A,,Clear,200,2013-10-02 02:53:00
11:53 PM,64.9,57.9,78,30.02,8.0,SSW,8.1,-,N/A,,Clear,200,2013-10-02 03:53:00